SANTIAGO DE COMPOSTELA, GALICIA

latitud = 42° 53' 17''N | Longitud = 008° 24' 38''W
370 metros sobre el nivel del mar | datos mensuales

Fecha, hora, temperatura, viento dirección y velocidad, humedad y presión.

  • 22-11-2017 09:00:00 | 11.30°C | Sur |10.00 km/h | 63.00% | 966.00 hPa
  • 22-11-2017 08:00:00 | 10.40°C | Sudeste |6.00 km/h | 70.00% | 966.30 hPa
  • 22-11-2017 07:00:00 | 10.30°C | Sur |4.00 km/h | 75.00% | 966.90 hPa
  • 22-11-2017 06:00:00 | 11.40°C | Sur |13.00 km/h | 73.00% | 967.80 hPa
  • 22-11-2017 05:00:00 | 12.10°C | Sudoeste |16.00 km/h | 74.00% | 968.50 hPa
  • 22-11-2017 04:00:00 | 11.50°C | Sudoeste |16.00 km/h | 81.00% | 969.20 hPa
  • 22-11-2017 03:00:00 | 11.10°C | Sur |15.00 km/h | 85.00% | 969.60 hPa
  • 22-11-2017 02:00:00 | 11.40°C | Sudoeste |12.00 km/h | 86.00% | 970.40 hPa
  • 22-11-2017 01:00:00 | 11.10°C | Sur |14.00 km/h | 87.00% | 971.20 hPa
  • 22-11-2017 00:00:00 | 10.40°C | Sudeste |7.00 km/h | 75.00% | 971.80 hPa
  • 21-11-2017 23:00:00 | 11.80°C | Sur |15.00 km/h | 69.00% | 972.20 hPa
  • 21-11-2017 22:00:00 | 11.50°C | Sur |14.00 km/h | 66.00% | 972.80 hPa
  • 21-11-2017 21:00:00 | 12.10°C | Sudoeste |13.00 km/h | 59.00% | 973.10 hPa
  • 21-11-2017 20:00:00 | 12.10°C | Sudoeste |9.00 km/h | 61.00% | 973.40 hPa
  • 21-11-2017 19:00:00 | 12.50°C | Sudoeste |13.00 km/h | 61.00% | 973.80 hPa
  • 21-11-2017 18:00:00 | 13.40°C | Sudoeste |11.00 km/h | 58.00% | 973.80 hPa
  • 21-11-2017 17:00:00 | 16.00°C | Sudoeste |9.00 km/h | 49.00% | 973.80 hPa
  • 21-11-2017 16:00:00 | 16.80°C | Sur |18.00 km/h | 47.00% | 973.80 hPa
  • 21-11-2017 15:00:00 | 17.10°C | Sur |3.00 km/h | 58.00% | 974.60 hPa
  • 21-11-2017 14:00:00 | 16.70°C | Sudeste |6.00 km/h | 53.00% | 975.20 hPa
  • 21-11-2017 13:00:00 | 15.40°C | Sudeste |6.00 km/h | 51.00% | 976.00 hPa
  • 21-11-2017 12:00:00 | 13.50°C | Sur |5.00 km/h | 52.00% | 977.30 hPa
  • 21-11-2017 11:00:00 | 11.90°C | Sudeste |10.00 km/h | 51.00% | 977.40 hPa
  • 21-11-2017 10:00:00 | 9.70°C | Sur |11.00 km/h | 55.00% | 977.50 hPa